Time,TemperatureF,DewpointF,PressureIn,WindDirection,WindDirectionDegrees,WindSpeedMPH,WindSpeedGustMPH,Humidity,HourlyPrecipIn,Conditions,Clouds,dailyrainin,SoftwareType,DateUTC
2013-01-14 00:05:00,22.3,13.7,28.67,ENE,75,0.0,0.0,69,0.00,,---,0.00,VWS V14.01,2013-01-14 08:05:00,
2013-01-14 00:10:00,22.5,13.8,28.67,ENE,75,0.0,0.0,69,0.00,,---,0.00,VWS V14.01,2013-01-14 08:10:00,
2013-01-14 00:15:00,22.6,14.0,28.67,ENE,75,0.0,0.0,69,0.00,,---,0.00,VWS V14.01,2013-01-14 08:15:00,
2013-01-14 00:20:00,22.8,14.2,28.67,ENE,75,0.0,0.0,69,0.00,,---,0.00,VWS V14.01,2013-01-14 08:20:00,
2013-01-14 00:26:00,22.8,14.2,28.67,ENE,75,0.0,0.0,69,0.00,,---,0.00,VWS V14.01,2013-01-14 08:26:00,
2013-01-14 00:31:00,22.8,14.2,28.67,ENE,75,0.0,0.0,69,0.00,,---,0.00,VWS V14.01,2013-01-14 08:31:00,
2013-01-14 00:36:00,22.8,14.2,28.67,ENE,75,0.0,0.0,69,0.00,,---,0.00,VWS V14.01,2013-01-14 08:36:00,
2013-01-14 00:41:00,23.0,14.4,28.67,ENE,75,0.0,0.0,69,0.00,,---,0.00,VWS V14.01,2013-01-14 08:41:00,
2013-01-14 00:48:00,23.0,14.4,28.67,ENE,75,0.0,0.0,69,0.00,,---,0.00,VWS V14.01,2013-01-14 08:48:00,
2013-01-14 00:53:00,23.2,14.2,28.67,ENE,75,0.0,0.0,68,0.00,,---,0.00,VWS V14.01,2013-01-14 08:53:00,
2013-01-14 00:58:00,23.2,14.2,28.67,ENE,75,0.0,0.0,68,0.00,,---,0.00,VWS V14.01,2013-01-14 08:58:00,
2013-01-14 01:04:00,23.4,14.4,28.67,ENE,75,0.0,0.0,68,0.00,,---,0.00,VWS V14.01,2013-01-14 09:04:00,
2013-01-14 01:09:00,23.2,14.2,28.67,ENE,75,0.0,0.0,68,0.00,,---,0.00,VWS V14.01,2013-01-14 09:09:00,
2013-01-14 01:14:00,23.2,14.2,28.67,ENE,75,0.0,0.0,68,0.00,,---,0.00,VWS V14.01,2013-01-14 09:14:00,
2013-01-14 01:19:00,23.4,14.4,28.67,ENE,75,0.0,0.0,68,0.00,,---,0.00,VWS V14.01,2013-01-14 09:19:00,
2013-01-14 01:25:00,23.2,14.2,28.67,ENE,75,0.0,0.0,68,0.00,,---,0.00,VWS V14.01,2013-01-14 09:25:00,
2013-01-14 01:30:00,23.4,14.4,28.67,ENE,75,0.0,0.0,68,0.00,,---,0.00,VWS V14.01,2013-01-14 09:30:00,
2013-01-14 01:35:00,23.4,14.4,28.67,ENE,75,0.0,0.0,68,0.00,,---,0.00,VWS V14.01,2013-01-14 09:35:00,
2013-01-14 01:41:00,23.4,14.4,28.67,ENE,75,0.0,0.0,68,0.00,,---,0.00,VWS V14.01,2013-01-14 09:41:00,
2013-01-14 01:46:00,23.4,14.4,28.67,NE,46,0.0,0.0,68,0.00,,---,0.00,VWS V14.01,2013-01-14 09:46:00,
2013-01-14 01:51:00,23.4,14.4,28.67,NE,46,0.0,0.0,68,0.00,,---,0.00,VWS V14.01,2013-01-14 09:51:00,
2013-01-14 01:57:00,23.4,14.0,28.67,NE,36,0.0,0.0,67,0.00,,---,0.00,VWS V14.01,2013-01-14 09:57:00,
2013-01-14 02:02:00,23.2,13.9,28.67,NE,36,0.0,0.0,67,0.00,,---,0.00,VWS V14.01,2013-01-14 10:02:00,
2013-01-14 02:07:00,22.8,13.5,28.67,NE,36,0.0,0.0,67,0.00,,---,0.00,VWS V14.01,2013-01-14 10:07:00,
2013-01-14 02:13:00,22.8,13.2,28.67,NE,36,0.0,0.0,66,0.00,,---,0.00,VWS V14.01,2013-01-14 10:13:00,
2013-01-14 02:18:00,22.5,12.8,28.67,NE,36,0.0,0.0,66,0.00,,---,0.00,VWS V14.01,2013-01-14 10:18:00,
2013-01-14 02:23:00,22.3,12.3,28.67,NE,36,0.0,0.0,65,0.00,,---,0.00,VWS V14.01,2013-01-14 10:23:00,
2013-01-14 02:28:00,22.3,12.3,28.67,NE,36,0.0,0.0,65,0.00,,---,0.00,VWS V14.01,2013-01-14 10:28:00,
2013-01-14 02:34:00,22.3,12.3,28.67,NE,36,0.0,0.0,65,0.00,,---,0.00,VWS V14.01,2013-01-14 10:34:00,
2013-01-14 02:39:00,21.9,11.6,28.67,NE,36,0.0,0.0,64,0.00,,---,0.00,VWS V14.01,2013-01-14 10:39:00,
2013-01-14 02:44:00,21.4,11.1,28.67,NE,36,0.0,0.0,64,0.00,,---,0.00,VWS V14.01,2013-01-14 10:44:00,
2013-01-14 02:50:00,21.2,10.9,28.67,SE,126,0.0,0.0,64,0.00,,---,0.00,VWS V14.01,2013-01-14 10:50:00,
2013-01-14 02:55:00,21.2,10.9,28.67,SSE,168,0.0,0.0,64,0.00,,---,0.00,VWS V14.01,2013-01-14 10:55:00,
2013-01-14 03:00:00,21.2,10.9,28.67,SSE,168,0.0,0.0,64,0.00,,---,0.00,VWS V14.01,2013-01-14 11:00:00,
2013-01-14 03:05:00,20.8,10.9,28.67,SSE,168,0.0,0.0,65,0.00,,---,0.00,VWS V14.01,2013-01-14 11:05:00,
2013-01-14 03:11:00,20.8,10.9,28.67,SW,219,0.0,0.0,65,0.00,,---,0.00,VWS V14.01,2013-01-14 11:11:00,
2013-01-14 03:16:00,20.8,10.9,28.67,SW,219,0.0,0.0,65,0.00,,---,0.00,VWS V14.01,2013-01-14 11:16:00,
2013-01-14 03:21:00,20.7,10.8,28.67,SW,219,0.0,0.0,65,0.00,,---,0.00,VWS V14.01,2013-01-14 11:21:00,
2013-01-14 03:26:00,20.7,10.8,28.67,SW,219,0.0,0.0,65,0.00,,---,0.00,VWS V14.01,2013-01-14 11:26:00,
2013-01-14 03:32:00,20.5,10.6,28.67,SW,219,0.0,0.0,65,0.00,,---,0.00,VWS V14.01,2013-01-14 11:32:00,
2013-01-14 03:37:00,20.3,10.4,28.67,SW,219,0.0,0.0,65,0.00,,---,0.00,VWS V14.01,2013-01-14 11:37:00,
2013-01-14 03:42:00,20.3,10.4,28.67,SW,219,0.0,0.0,65,0.00,,---,0.00,VWS V14.01,2013-01-14 11:42:00,
2013-01-14 03:47:00,20.3,10.4,28.67,SW,219,0.0,0.0,65,0.00,,---,0.00,VWS V14.01,2013-01-14 11:47:00,
2013-01-14 03:53:00,20.5,10.9,28.67,South,170,0.0,0.0,66,0.00,,---,0.00,VWS V14.01,2013-01-14 11:53:00,
2013-01-14 03:58:00,20.3,10.8,28.67,SW,215,0.0,0.0,66,0.00,,---,0.00,VWS V14.01,2013-01-14 11:58:00,
2013-01-14 04:03:00,20.3,10.8,28.67,ESE,118,0.0,0.0,66,0.00,,---,0.00,VWS V14.01,2013-01-14 12:03:00,
2013-01-14 04:09:00,20.3,10.8,28.67,ESE,118,0.0,0.0,66,0.00,,---,0.00,VWS V14.01,2013-01-14 12:09:00,
2013-01-14 04:14:00,20.7,11.1,28.67,ESE,118,0.0,0.0,66,0.00,,---,0.00,VWS V14.01,2013-01-14 12:14:00,
2013-01-14 04:19:00,20.8,11.3,28.67,ESE,118,0.0,0.0,66,0.00,,---,0.00,VWS V14.01,2013-01-14 12:19:00,
2013-01-14 04:24:00,20.8,11.3,28.67,ESE,118,0.0,0.0,66,0.00,,---,0.00,VWS V14.01,2013-01-14 12:24:00,
2013-01-14 04:30:00,21.0,11.5,28.67,ENE,75,0.0,0.0,66,0.00,,---,0.00,VWS V14.01,2013-01-14 12:30:00,
2013-01-14 04:35:00,21.0,11.1,28.67,ENE,75,0.0,0.0,65,0.00,,---,0.00,VWS V14.01,2013-01-14 12:35:00,
2013-01-14 04:40:00,21.0,11.1,28.67,ENE,75,0.0,0.0,65,0.00,,---,0.00,VWS V14.01,2013-01-14 12:40:00,
2013-01-14 04:45:00,21.0,10.8,28.67,ENE,75,0.0,0.0,64,0.00,,---,0.00,VWS V14.01,2013-01-14 12:45:00,
2013-01-14 04:51:00,21.0,10.8,28.67,ENE,75,0.0,0.0,64,0.00,,---,0.00,VWS V14.01,2013-01-14 12:51:00,
2013-01-14 04:56:00,20.8,10.2,28.67,ENE,75,0.0,0.0,63,0.00,,---,0.00,VWS V14.01,2013-01-14 12:56:00,
2013-01-14 05:01:00,20.8,9.9,28.67,ENE,75,0.0,0.0,62,0.00,,---,0.00,VWS V14.01,2013-01-14 13:01:00,
2013-01-14 05:07:00,20.8,9.9,28.67,ENE,75,0.0,0.0,62,0.00,,---,0.00,VWS V14.01,2013-01-14 13:07:00,
2013-01-14 05:12:00,20.7,9.7,28.67,ENE,75,0.0,0.0,62,0.00,,---,0.00,VWS V14.01,2013-01-14 13:12:00,
2013-01-14 05:17:00,20.7,9.7,28.67,ENE,75,0.0,0.0,62,0.00,,---,0.00,VWS V14.01,2013-01-14 13:17:00,
2013-01-14 05:22:00,20.7,9.4,28.67,ENE,75,0.0,0.0,61,0.00,,---,0.00,VWS V14.01,2013-01-14 13:22:00,
2013-01-14 05:28:00,20.3,9.0,28.67,ENE,75,0.0,0.0,61,0.00,,---,0.00,VWS V14.01,2013-01-14 13:28:00,
2013-01-14 05:33:00,20.3,9.0,28.67,East,88,0.0,0.0,61,0.00,,---,0.00,VWS V14.01,2013-01-14 13:33:00,
2013-01-14 05:38:00,20.3,9.0,28.67,ESE,108,0.0,2.2,61,0.00,,---,0.00,VWS V14.01,2013-01-14 13:38:00,
2013-01-14 05:43:00,20.5,9.6,28.67,ESE,108,0.0,0.0,62,0.00,,---,0.00,VWS V14.01,2013-01-14 13:43:00,
2013-01-14 05:49:00,20.3,9.0,28.67,ESE,108,0.0,0.0,61,0.00,,---,0.00,VWS V14.01,2013-01-14 13:49:00,
2013-01-14 05:54:00,20.3,9.0,28.67,ESE,108,0.0,0.0,61,0.00,,---,0.00,VWS V14.01,2013-01-14 13:54:00,
2013-01-14 05:59:00,20.1,8.5,28.70,ESE,108,0.0,0.0,60,0.00,,---,0.00,VWS V14.01,2013-01-14 13:59:00,
2013-01-14 06:04:00,20.1,8.5,28.70,ESE,108,0.0,0.0,60,0.00,,---,0.00,VWS V14.01,2013-01-14 14:04:00,
2013-01-14 06:10:00,19.4,8.2,28.70,ESE,108,0.0,0.0,61,0.00,,---,0.00,VWS V14.01,2013-01-14 14:10:00,
2013-01-14 06:15:00,19.2,8.0,28.70,ESE,108,0.0,0.0,61,0.00,,---,0.00,VWS V14.01,2013-01-14 14:15:00,
2013-01-14 06:20:00,19.4,8.5,28.70,ESE,108,0.0,0.0,62,0.00,,---,0.00,VWS V14.01,2013-01-14 14:20:00,
2013-01-14 06:25:00,19.4,8.5,28.70,ESE,108,0.0,0.0,62,0.00,,---,0.00,VWS V14.01,2013-01-14 14:25:00,
2013-01-14 06:31:00,19.4,8.5,28.70,ESE,108,0.0,0.0,62,0.00,,---,0.00,VWS V14.01,2013-01-14 14:31:00,
2013-01-14 06:36:00,19.2,8.0,28.70,ESE,108,0.0,0.0,61,0.00,,---,0.00,VWS V14.01,2013-01-14 14:36:00,
2013-01-14 06:41:00,19.0,7.8,28.70,ESE,108,0.0,0.0,61,0.00,,---,0.00,VWS V14.01,2013-01-14 14:41:00,
2013-01-14 06:46:00,20.3,9.7,28.70,ESE,108,0.0,0.0,63,0.00,,---,0.00,VWS V14.01,2013-01-14 14:46:00,
2013-01-14 06:52:00,20.1,9.6,28.70,NE,46,0.0,0.0,63,0.00,,---,0.00,VWS V14.01,2013-01-14 14:52:00,
2013-01-14 06:57:00,20.1,9.6,28.70,NE,46,0.0,0.0,63,0.00,,---,0.00,VWS V14.01,2013-01-14 14:57:00,
2013-01-14 07:02:00,20.3,9.4,28.70,NE,46,0.0,0.0,62,0.00,,---,0.00,VWS V14.01,2013-01-14 15:02:00,
2013-01-14 07:07:00,20.3,9.4,28.70,NE,46,0.0,0.0,62,0.00,,---,0.00,VWS V14.01,2013-01-14 15:07:00,
2013-01-14 07:13:00,20.5,9.2,28.70,NE,46,0.0,0.0,61,0.00,,---,0.00,VWS V14.01,2013-01-14 15:13:00,
2013-01-14 07:18:00,20.5,9.2,28.70,NE,46,0.0,0.0,61,0.00,,---,0.00,VWS V14.01,2013-01-14 15:18:00,
2013-01-14 07:23:00,19.9,8.7,28.70,NE,46,0.0,0.0,61,0.00,,---,0.00,VWS V14.01,2013-01-14 15:23:00,
2013-01-14 07:29:00,19.9,8.7,28.70,NE,46,0.0,0.0,61,0.00,,---,0.00,VWS V14.01,2013-01-14 15:29:00,
2013-01-14 07:34:00,19.6,8.3,28.70,NE,46,0.0,0.0,61,0.00,,---,0.00,VWS V14.01,2013-01-14 15:34:00,
2013-01-14 07:39:00,19.6,8.3,28.70,NE,46,0.0,0.0,61,0.00,,---,0.00,VWS V14.01,2013-01-14 15:39:00,
2013-01-14 07:44:00,20.1,9.2,28.70,ENE,71,0.0,2.7,62,0.00,,---,0.00,VWS V14.01,2013-01-14 15:44:00,
2013-01-14 07:50:00,20.1,9.2,28.70,ENE,71,0.0,0.0,62,0.00,,---,0.00,VWS V14.01,2013-01-14 15:50:00,
2013-01-14 07:55:00,20.1,9.2,28.70,ENE,71,0.0,0.0,62,0.00,,---,0.00,VWS V14.01,2013-01-14 15:55:00,
2013-01-14 08:00:00,20.3,9.0,28.70,ENE,71,0.0,0.0,61,0.00,,---,0.00,VWS V14.01,2013-01-14 16:00:00,
2013-01-14 08:05:00,20.5,9.2,28.70,ENE,71,0.0,0.0,61,0.00,,---,0.00,VWS V14.01,2013-01-14 16:05:00,
2013-01-14 08:11:00,20.8,9.5,28.70,East,96,0.0,0.0,61,0.00,,---,0.00,VWS V14.01,2013-01-14 16:11:00,
2013-01-14 08:16:00,20.8,9.5,28.70,NE,48,0.0,0.0,61,0.00,,---,0.00,VWS V14.01,2013-01-14 16:16:00,
2013-01-14 08:21:00,20.8,9.5,28.70,NE,48,0.0,0.0,61,0.00,,---,0.00,VWS V14.01,2013-01-14 16:21:00,
2013-01-14 08:27:00,20.8,9.5,28.70,NE,48,0.0,0.0,61,0.00,,---,0.00,VWS V14.01,2013-01-14 16:27:00,
2013-01-14 08:32:00,21.4,10.0,28.70,NE,48,0.0,0.0,61,0.00,,---,0.00,VWS V14.01,2013-01-14 16:32:00,
2013-01-14 08:37:00,21.4,10.0,28.70,NE,48,0.0,0.0,61,0.00,,---,0.00,VWS V14.01,2013-01-14 16:37:00,
2013-01-14 08:42:00,21.2,9.9,28.70,NE,48,0.0,0.0,61,0.00,,---,0.00,VWS V14.01,2013-01-14 16:42:00,
2013-01-14 08:48:00,21.2,9.9,28.70,NE,48,0.0,0.0,61,0.00,,---,0.00,VWS V14.01,2013-01-14 16:48:00,
2013-01-14 08:53:00,21.2,9.5,28.70,NE,48,0.0,0.0,60,0.00,,---,0.00,VWS V14.01,2013-01-14 16:53:00,
2013-01-14 08:58:00,21.2,9.5,28.70,NE,48,0.0,0.0,60,0.00,,---,0.00,VWS V14.01,2013-01-14 16:58:00,
2013-01-14 09:03:00,21.2,9.5,28.70,NE,48,0.0,0.0,60,0.00,,---,0.00,VWS V14.01,2013-01-14 17:03:00,
2013-01-14 09:09:00,21.9,10.6,28.70,NNE,33,0.0,0.0,61,0.00,,---,0.00,VWS V14.01,2013-01-14 17:09:00,
2013-01-14 09:14:00,21.9,10.6,28.70,NE,56,0.0,0.0,61,0.00,,---,0.00,VWS V14.01,2013-01-14 17:14:00,
2013-01-14 09:19:00,23.0,11.9,28.70,ENE,66,2.2,2.2,62,0.00,,---,0.00,VWS V14.01,2013-01-14 17:19:00,
2013-01-14 09:25:00,23.2,12.1,28.70,ENE,66,2.2,2.2,62,0.00,,---,0.00,VWS V14.01,2013-01-14 17:25:00,
2013-01-14 09:30:00,23.9,12.8,28.70,ENE,72,0.0,0.0,62,0.00,,---,0.00,VWS V14.01,2013-01-14 17:30:00,
2013-01-14 09:35:00,24.1,13.0,28.70,ENE,68,0.0,0.0,62,0.00,,---,0.00,VWS V14.01,2013-01-14 17:35:00,
2013-01-14 09:40:00,24.1,13.0,28.73,ENE,72,0.0,0.0,62,0.00,,---,0.00,VWS V14.01,2013-01-14 17:40:00,
2013-01-14 09:46:00,24.4,13.3,28.73,East,85,0.0,0.0,62,0.00,,---,0.00,VWS V14.01,2013-01-14 17:46:00,
2013-01-14 09:51:00,24.4,13.3,28.73,East,85,0.0,0.0,62,0.00,,---,0.00,VWS V14.01,2013-01-14 17:51:00,
2013-01-14 09:56:00,25.2,14.0,28.73,East,97,0.0,0.0,62,0.00,,---,0.00,VWS V14.01,2013-01-14 17:56:00,
2013-01-14 10:02:00,25.2,14.0,28.73,East,97,0.0,0.0,62,0.00,,---,0.00,VWS V14.01,2013-01-14 18:02:00,
2013-01-14 10:07:00,26.2,15.4,28.73,East,97,0.0,0.0,63,0.00,,---,0.00,VWS V14.01,2013-01-14 18:07:00,
2013-01-14 10:12:00,27.0,16.1,28.73,ESE,108,0.0,0.0,63,0.00,,---,0.00,VWS V14.01,2013-01-14 18:12:00,
2013-01-14 10:17:00,27.1,16.2,28.73,ESE,108,0.0,0.0,63,0.00,,---,0.00,VWS V14.01,2013-01-14 18:17:00,
2013-01-14 10:23:00,27.5,16.6,28.73,ESE,107,0.0,0.0,63,0.00,,---,0.00,VWS V14.01,2013-01-14 18:23:00,
2013-01-14 10:28:00,27.9,16.9,28.73,ESE,108,0.0,0.0,63,0.00,,---,0.00,VWS V14.01,2013-01-14 18:28:00,
2013-01-14 10:33:00,28.8,17.8,28.73,ESE,108,2.2,2.2,63,0.00,,---,0.00,VWS V14.01,2013-01-14 18:33:00,
2013-01-14 10:38:00,30.4,19.7,28.73,ESE,118,0.0,2.2,64,0.00,,---,0.00,VWS V14.01,2013-01-14 18:38:00,
2013-01-14 10:44:00,30.9,20.2,28.73,ESE,118,0.0,0.0,64,0.00,,---,0.00,VWS V14.01,2013-01-14 18:44:00,
2013-01-14 10:49:00,32.9,22.1,28.73,ESE,118,0.0,0.0,64,0.00,,---,0.00,VWS V14.01,2013-01-14 18:49:00,
2013-01-14 10:54:00,31.5,20.0,28.73,North,11,2.7,2.7,62,0.00,,---,0.00,VWS V14.01,2013-01-14 18:54:00,
2013-01-14 10:59:00,30.4,17.4,28.73,North,11,2.7,2.7,58,0.00,,---,0.00,VWS V14.01,2013-01-14 18:59:00,
2013-01-14 11:05:00,29.5,14.9,28.73,North,357,0.0,2.2,54,0.00,,---,0.00,VWS V14.01,2013-01-14 19:05:00,
2013-01-14 11:10:00,29.3,14.7,28.73,North,357,0.0,0.0,54,0.00,,---,0.00,VWS V14.01,2013-01-14 19:10:00,
2013-01-14 11:15:00,29.8,15.2,28.73,NE,44,0.0,0.0,54,0.00,,---,0.00,VWS V14.01,2013-01-14 19:15:00,
2013-01-14 11:20:00,30.4,15.7,28.73,NE,44,0.0,0.0,54,0.00,,---,0.00,VWS V14.01,2013-01-14 19:20:00,
2013-01-14 11:26:00,31.1,16.8,28.73,NE,44,0.0,0.0,55,0.00,,---,0.00,VWS V14.01,2013-01-14 19:26:00,
2013-01-14 11:31:00,31.1,17.2,28.73,North,0,0.0,0.0,56,0.00,,---,0.00,VWS V14.01,2013-01-14 19:31:00,
2013-01-14 11:36:00,31.1,17.2,28.73,North,0,0.0,0.0,56,0.00,,---,0.00,VWS V14.01,2013-01-14 19:36:00,
2013-01-14 11:41:00,31.6,18.2,28.73,North,0,0.0,0.0,57,0.00,,---,0.00,VWS V14.01,2013-01-14 19:41:00,
2013-01-14 11:47:00,32.7,19.6,28.73,North,0,0.0,0.0,58,0.00,,---,0.00,VWS V14.01,2013-01-14 19:47:00,
2013-01-14 11:52:00,32.7,19.6,28.73,North,0,0.0,2.7,58,0.00,,---,0.00,VWS V14.01,2013-01-14 19:52:00,
2013-01-14 11:57:00,33.3,19.7,28.73,North,0,0.0,0.0,57,0.00,,---,0.00,VWS V14.01,2013-01-14 19:57:00,
2013-01-14 12:03:00,32.7,18.4,28.70,NNE,17,3.1,3.1,55,0.00,,---,0.00,VWS V14.01,2013-01-14 20:03:00,
2013-01-14 12:08:00,31.6,16.5,28.70,NNE,13,3.6,3.6,53,0.00,,---,0.00,VWS V14.01,2013-01-14 20:08:00,
2013-01-14 12:13:00,31.6,16.5,28.70,NNE,13,0.0,0.0,53,0.00,,---,0.00,VWS V14.01,2013-01-14 20:13:00,
2013-01-14 12:18:00,31.6,16.5,28.70,NNE,13,0.0,0.0,53,0.00,,---,0.00,VWS V14.01,2013-01-14 20:18:00,
2013-01-14 12:24:00,32.2,17.4,28.70,NE,53,0.0,0.0,54,0.00,,---,0.00,VWS V14.01,2013-01-14 20:24:00,
2013-01-14 12:29:00,32.7,17.9,28.70,NE,53,0.0,0.0,54,0.00,,---,0.00,VWS V14.01,2013-01-14 20:29:00,
2013-01-14 12:34:00,32.0,14.6,28.70,NNE,25,0.0,0.0,48,0.00,,---,0.00,VWS V14.01,2013-01-14 20:34:00,
2013-01-14 12:39:00,31.6,13.2,28.70,NNE,25,2.2,2.2,46,0.00,,---,0.00,VWS V14.01,2013-01-14 20:39:00,
2013-01-14 12:45:00,31.6,13.2,28.70,NNE,20,2.7,2.7,46,0.00,,---,0.00,VWS V14.01,2013-01-14 20:45:00,
2013-01-14 12:50:00,32.4,14.4,28.70,NNE,20,3.1,3.1,47,0.00,,---,0.00,VWS V14.01,2013-01-14 20:50:00,
2013-01-14 12:55:00,32.4,14.4,28.70,North,9,2.7,2.7,47,0.00,,---,0.00,VWS V14.01,2013-01-14 20:55:00,
2013-01-14 13:00:00,32.4,11.9,28.70,North,353,0.0,0.0,42,0.00,,---,0.00,VWS V14.01,2013-01-14 21:00:00,
2013-01-14 13:06:00,32.4,11.9,28.70,North,353,0.0,0.0,42,0.00,,---,0.00,VWS V14.01,2013-01-14 21:06:00,
2013-01-14 13:11:00,32.4,11.9,28.70,North,353,2.2,2.2,42,0.00,,---,0.00,VWS V14.01,2013-01-14 21:11:00,
2013-01-14 13:16:00,32.2,11.7,28.70,North,353,0.0,0.0,42,0.00,,---,0.00,VWS V14.01,2013-01-14 21:16:00,
2013-01-14 13:21:00,32.4,11.9,28.70,North,353,0.0,0.0,42,0.00,,---,0.00,VWS V14.01,2013-01-14 21:21:00,
2013-01-14 13:27:00,32.4,11.3,28.70,North,353,0.0,2.2,41,0.00,,---,0.00,VWS V14.01,2013-01-14 21:27:00,
2013-01-14 13:32:00,32.4,11.3,28.70,North,353,0.0,0.0,41,0.00,,---,0.00,VWS V14.01,2013-01-14 21:32:00,
2013-01-14 13:37:00,32.7,12.2,28.70,North,353,0.0,0.0,42,0.00,,---,0.00,VWS V14.01,2013-01-14 21:37:00,
2013-01-14 13:42:00,32.7,12.2,28.70,North,353,0.0,0.0,42,0.00,,---,0.00,VWS V14.01,2013-01-14 21:42:00,
2013-01-14 13:48:00,33.3,12.7,28.70,North,353,0.0,0.0,42,0.00,,---,0.00,VWS V14.01,2013-01-14 21:48:00,
2013-01-14 13:53:00,33.4,12.8,28.70,North,353,0.0,0.0,42,0.00,,---,0.00,VWS V14.01,2013-01-14 21:53:00,
2013-01-14 13:58:00,33.8,12.6,28.70,North,353,0.0,0.0,41,0.00,,---,0.00,VWS V14.01,2013-01-14 21:58:00,
2013-01-14 14:03:00,34.0,13.3,28.70,North,353,0.0,0.0,42,0.00,,---,0.00,VWS V14.01,2013-01-14 22:03:00,
2013-01-14 14:09:00,34.3,13.6,28.70,North,353,0.0,0.0,42,0.00,,---,0.00,VWS V14.01,2013-01-14 22:09:00,
2013-01-14 14:14:00,34.5,13.8,28.70,North,353,0.0,0.0,42,0.00,,---,0.00,VWS V14.01,2013-01-14 22:14:00,
2013-01-14 14:19:00,34.9,14.1,28.70,North,353,0.0,0.0,42,0.00,,---,0.00,VWS V14.01,2013-01-14 22:19:00,
2013-01-14 14:24:00,35.2,14.5,28.70,North,353,0.0,0.0,42,0.00,,---,0.00,VWS V14.01,2013-01-14 22:24:00,
2013-01-14 14:30:00,35.4,14.6,28.73,North,353,0.0,0.0,42,0.00,,---,0.00,VWS V14.01,2013-01-14 22:30:00,
2013-01-14 14:35:00,35.6,14.8,28.73,North,353,0.0,0.0,42,0.00,,---,0.00,VWS V14.01,2013-01-14 22:35:00,
2013-01-14 14:40:00,35.6,14.8,28.73,North,353,0.0,0.0,42,0.00,,---,0.00,VWS V14.01,2013-01-14 22:40:00,
2013-01-14 14:46:00,35.6,14.8,28.73,North,353,0.0,0.0,42,0.00,,---,0.00,VWS V14.01,2013-01-14 22:46:00,
2013-01-14 14:51:00,35.6,14.8,28.73,North,353,0.0,0.0,42,0.00,,---,0.00,VWS V14.01,2013-01-14 22:51:00,
2013-01-14 14:56:00,35.6,14.8,28.73,North,353,0.0,0.0,42,0.00,,---,0.00,VWS V14.01,2013-01-14 22:56:00,
2013-01-14 15:01:00,35.8,14.9,28.73,North,353,0.0,0.0,42,0.00,,---,0.00,VWS V14.01,2013-01-14 23:01:00,
2013-01-14 15:06:00,35.6,14.8,28.73,North,353,0.0,0.0,42,0.00,,---,0.00,VWS V14.01,2013-01-14 23:06:00,
2013-01-14 15:12:00,35.8,14.9,28.73,North,353,0.0,0.0,42,0.00,,---,0.00,VWS V14.01,2013-01-14 23:12:00,
2013-01-14 15:17:00,35.4,14.6,28.73,North,353,0.0,0.0,42,0.00,,---,0.00,VWS V14.01,2013-01-14 23:17:00,
2013-01-14 15:22:00,35.4,14.6,28.73,North,353,0.0,0.0,42,0.00,,---,0.00,VWS V14.01,2013-01-14 23:22:00,
2013-01-14 15:27:00,35.4,14.6,28.73,North,353,0.0,0.0,42,0.00,,---,0.00,VWS V14.01,2013-01-14 23:27:00,
2013-01-14 15:33:00,34.5,13.8,28.73,North,353,0.0,0.0,42,0.00,,---,0.00,VWS V14.01,2013-01-14 23:33:00,
2013-01-14 15:38:00,34.5,14.3,28.73,North,353,0.0,0.0,43,0.00,,---,0.00,VWS V14.01,2013-01-14 23:38:00,
2013-01-14 15:43:00,34.3,14.2,28.73,North,353,0.0,0.0,43,0.00,,---,0.00,VWS V14.01,2013-01-14 23:43:00,
2013-01-14 15:49:00,34.3,14.2,28.73,North,353,0.0,0.0,43,0.00,,---,0.00,VWS V14.01,2013-01-14 23:49:00,
2013-01-14 15:54:00,34.3,14.2,28.73,North,353,0.0,0.0,43,0.00,,---,0.00,VWS V14.01,2013-01-14 23:54:00,
2013-01-14 15:59:00,34.3,14.7,28.73,North,353,0.0,0.0,44,0.00,,---,0.00,VWS V14.01,2013-01-14 23:59:00,
2013-01-14 16:04:00,34.3,14.7,28.73,North,353,0.0,0.0,44,0.00,,---,0.00,VWS V14.01,2013-01-15 00:04:00,
2013-01-14 16:10:00,34.2,15.1,28.73,North,353,0.0,0.0,45,0.00,,---,0.00,VWS V14.01,2013-01-15 00:10:00,
2013-01-14 16:15:00,34.2,15.1,28.73,North,353,0.0,0.0,45,0.00,,---,0.00,VWS V14.01,2013-01-15 00:15:00,
2013-01-14 16:20:00,33.8,14.7,28.73,North,353,0.0,0.0,45,0.00,,---,0.00,VWS V14.01,2013-01-15 00:20:00,
2013-01-14 16:25:00,33.8,15.2,28.73,North,353,0.0,0.0,46,0.00,,---,0.00,VWS V14.01,2013-01-15 00:25:00,
2013-01-14 16:31:00,33.8,15.2,28.73,North,353,0.0,0.0,46,0.00,,---,0.00,VWS V14.01,2013-01-15 00:31:00,
2013-01-14 16:36:00,33.6,15.6,28.73,North,353,0.0,0.0,47,0.00,,---,0.00,VWS V14.01,2013-01-15 00:36:00,
2013-01-14 16:41:00,33.6,15.6,28.73,North,353,0.0,0.0,47,0.00,,---,0.00,VWS V14.01,2013-01-15 00:41:00,
2013-01-14 16:46:00,33.1,16.0,28.73,North,353,0.0,0.0,49,0.00,,---,0.00,VWS V14.01,2013-01-15 00:46:00,
2013-01-14 16:52:00,33.1,16.5,28.73,North,353,2.7,2.7,50,0.00,,---,0.00,VWS V14.01,2013-01-15 00:52:00,
2013-01-14 16:57:00,32.9,16.8,28.73,North,353,0.0,0.0,51,0.00,,---,0.00,VWS V14.01,2013-01-15 00:57:00,
2013-01-14 17:02:00,32.7,16.6,28.73,North,353,0.0,0.0,51,0.00,,---,0.00,VWS V14.01,2013-01-15 01:02:00,
2013-01-14 17:08:00,32.4,16.7,28.73,North,353,0.0,0.0,52,0.00,,---,0.00,VWS V14.01,2013-01-15 01:08:00,
2013-01-14 17:13:00,32.4,16.7,28.73,North,353,0.0,0.0,52,0.00,,---,0.00,VWS V14.01,2013-01-15 01:13:00,
2013-01-14 17:18:00,32.5,16.9,28.73,North,353,2.2,2.2,52,0.00,,---,0.00,VWS V14.01,2013-01-15 01:18:00,
2013-01-14 17:23:00,32.5,17.3,28.73,North,353,0.0,2.2,53,0.00,,---,0.00,VWS V14.01,2013-01-15 01:23:00,
2013-01-14 17:29:00,32.5,17.3,28.73,North,353,2.2,2.7,53,0.00,,---,0.00,VWS V14.01,2013-01-15 01:29:00,
2013-01-14 17:34:00,32.5,17.3,28.73,North,353,0.0,2.2,53,0.00,,---,0.00,VWS V14.01,2013-01-15 01:34:00,
2013-01-14 17:39:00,32.5,17.3,28.73,North,353,0.0,0.0,53,0.00,,---,0.00,VWS V14.01,2013-01-15 01:39:00,
2013-01-14 17:44:00,32.5,17.8,28.73,North,353,0.0,0.0,54,0.00,,---,0.00,VWS V14.01,2013-01-15 01:44:00,
2013-01-14 17:50:00,32.5,17.8,28.73,North,353,0.0,0.0,54,0.00,,---,0.00,VWS V14.01,2013-01-15 01:50:00,
2013-01-14 17:55:00,32.5,17.3,28.73,North,353,0.0,0.0,53,0.00,,---,0.00,VWS V14.01,2013-01-15 01:55:00,
2013-01-14 18:00:00,32.5,17.3,28.73,North,353,0.0,0.0,53,0.00,,---,0.00,VWS V14.01,2013-01-15 02:00:00,
2013-01-14 18:05:00,32.7,16.1,28.73,SSE,158,3.1,3.1,50,0.00,,---,0.00,VWS V14.01,2013-01-15 02:05:00,
2013-01-14 18:11:00,33.1,15.5,28.73,SSE,158,3.1,3.1,48,0.00,,---,0.00,VWS V14.01,2013-01-15 02:11:00,
2013-01-14 18:16:00,33.1,14.6,28.73,SSE,150,0.0,0.0,46,0.00,,---,0.00,VWS V14.01,2013-01-15 02:16:00,
2013-01-14 18:21:00,33.1,13.6,28.73,SE,125,0.0,0.0,44,0.00,,---,0.00,VWS V14.01,2013-01-15 02:21:00,
2013-01-14 18:26:00,33.1,13.6,28.73,SE,125,0.0,0.0,44,0.00,,---,0.00,VWS V14.01,2013-01-15 02:26:00,
2013-01-14 18:32:00,33.1,13.6,28.73,SE,125,0.0,0.0,44,0.00,,---,0.00,VWS V14.01,2013-01-15 02:32:00,
2013-01-14 18:37:00,32.9,12.9,28.73,SE,125,0.0,0.0,43,0.00,,---,0.00,VWS V14.01,2013-01-15 02:37:00,
2013-01-14 18:42:00,32.7,13.2,28.73,SE,125,0.0,0.0,44,0.00,,---,0.00,VWS V14.01,2013-01-15 02:42:00,
2013-01-14 18:47:00,32.5,13.6,28.73,SE,125,0.0,0.0,45,0.00,,---,0.00,VWS V14.01,2013-01-15 02:47:00,
2013-01-14 18:53:00,32.5,13.6,28.73,SE,125,0.0,0.0,45,0.00,,---,0.00,VWS V14.01,2013-01-15 02:53:00,
2013-01-14 18:58:00,32.5,14.1,28.73,SE,125,2.7,2.7,46,0.00,,---,0.00,VWS V14.01,2013-01-15 02:58:00,
2013-01-14 19:03:00,32.5,14.6,28.73,SE,125,0.0,0.0,47,0.00,,---,0.00,VWS V14.01,2013-01-15 03:03:00,
2013-01-14 19:09:00,32.5,14.6,28.73,SE,125,0.0,0.0,47,0.00,,---,0.00,VWS V14.01,2013-01-15 03:09:00,
2013-01-14 19:14:00,32.5,14.6,28.73,SE,125,0.0,0.0,47,0.00,,---,0.00,VWS V14.01,2013-01-15 03:14:00,
2013-01-14 19:19:00,32.5,15.0,28.73,SE,125,0.0,0.0,48,0.00,,---,0.00,VWS V14.01,2013-01-15 03:19:00,
2013-01-14 19:24:00,32.5,15.0,28.73,SE,125,0.0,0.0,48,0.00,,---,0.00,VWS V14.01,2013-01-15 03:24:00,
2013-01-14 19:30:00,32.5,16.0,28.73,SE,125,0.0,0.0,50,0.00,,---,0.00,VWS V14.01,2013-01-15 03:30:00,
2013-01-14 19:35:00,32.5,16.4,28.73,SE,125,0.0,0.0,51,0.00,,---,0.00,VWS V14.01,2013-01-15 03:35:00,
2013-01-14 19:40:00,32.5,16.4,28.73,SE,125,0.0,0.0,51,0.00,,---,0.00,VWS V14.01,2013-01-15 03:40:00,
2013-01-14 19:45:00,32.5,16.9,28.73,ENE,76,3.6,3.6,52,0.00,,---,0.00,VWS V14.01,2013-01-15 03:45:00,
2013-01-14 19:50:00,32.7,16.1,28.73,ENE,73,3.1,3.1,50,0.00,,---,0.00,VWS V14.01,2013-01-15 03:50:00,
2013-01-14 19:56:00,32.7,16.1,28.73,SE,132,3.1,3.1,50,0.00,,---,0.00,VWS V14.01,2013-01-15 03:56:00,
2013-01-14 20:01:00,32.7,15.7,28.73,SE,142,3.1,3.1,49,0.00,,---,0.00,VWS V14.01,2013-01-15 04:01:00,
2013-01-14 20:06:00,32.7,15.7,28.73,SE,137,3.6,3.6,49,0.00,,---,0.00,VWS V14.01,2013-01-15 04:06:00,
2013-01-14 20:12:00,32.9,14.9,28.73,SE,143,0.0,3.6,47,0.00,,---,0.00,VWS V14.01,2013-01-15 04:12:00,
2013-01-14 20:17:00,32.7,14.2,28.73,SSE,151,3.6,4.9,46,0.00,,---,0.00,VWS V14.01,2013-01-15 04:17:00,
2013-01-14 20:22:00,32.7,14.2,28.73,SSE,151,2.2,2.2,46,0.00,,---,0.00,VWS V14.01,2013-01-15 04:22:00,
2013-01-14 20:27:00,32.7,14.2,28.73,ESE,119,3.1,4.0,46,0.00,,---,0.00,VWS V14.01,2013-01-15 04:27:00,
2013-01-14 20:32:00,33.1,13.6,28.73,SE,141,2.7,2.7,44,0.00,,---,0.00,VWS V14.01,2013-01-15 04:32:00,
2013-01-14 20:38:00,33.1,13.6,28.76,SSE,152,0.0,2.7,44,0.00,,---,0.00,VWS V14.01,2013-01-15 04:38:00,
2013-01-14 20:43:00,33.1,13.6,28.76,SE,125,2.7,2.7,44,0.00,,---,0.00,VWS V14.01,2013-01-15 04:43:00,
2013-01-14 20:48:00,33.1,13.6,28.76,SE,125,0.0,0.0,44,0.00,,---,0.00,VWS V14.01,2013-01-15 04:48:00,
2013-01-14 20:53:00,33.3,13.2,28.76,SE,125,0.0,0.0,43,0.00,,---,0.00,VWS V14.01,2013-01-15 04:53:00,
2013-01-14 20:59:00,33.3,13.2,28.76,ESE,119,3.1,3.1,43,0.00,,---,0.00,VWS V14.01,2013-01-15 04:59:00,
2013-01-14 21:00:00,33.3,13.2,28.76,ESE,119,3.1,3.1,43,0.00,,---,0.00,VWS V14.01,2013-01-15 05:00:00,
2013-01-14 21:01:00,33.3,13.2,28.76,ESE,119,3.1,3.1,43,0.00,,---,0.00,VWS V14.01,2013-01-15 05:01:00,
2013-01-14 21:02:00,33.3,13.2,28.76,East,95,0.0,3.1,43,0.00,,---,0.00,VWS V14.01,2013-01-15 05:02:00,
2013-01-14 21:04:00,33.3,13.2,28.76,East,84,0.0,3.1,43,0.00,,---,0.00,VWS V14.01,2013-01-15 05:04:00,
2013-01-14 21:10:00,33.3,13.2,28.76,East,84,0.0,0.0,43,0.00,,---,0.00,VWS V14.01,2013-01-15 05:10:00,
2013-01-14 21:15:00,33.3,13.2,28.76,East,86,2.2,2.7,43,0.00,,---,0.00,VWS V14.01,2013-01-15 05:15:00,
2013-01-14 21:20:00,33.3,13.2,28.76,SE,125,3.6,3.6,43,0.00,,---,0.00,VWS V14.01,2013-01-15 05:20:00,
2013-01-14 21:25:00,33.3,13.7,28.76,ESE,108,0.0,0.0,44,0.00,,---,0.00,VWS V14.01,2013-01-15 05:25:00,
2013-01-14 21:31:00,33.3,13.7,28.76,ESE,108,0.0,0.0,44,0.00,,---,0.00,VWS V14.01,2013-01-15 05:31:00,
2013-01-14 21:36:00,33.3,13.7,28.76,ESE,108,0.0,0.0,44,0.00,,---,0.00,VWS V14.01,2013-01-15 05:36:00,
2013-01-14 21:41:00,33.4,13.9,28.76,ESE,108,0.0,0.0,44,0.00,,---,0.00,VWS V14.01,2013-01-15 05:41:00,
2013-01-14 21:47:00,33.4,13.9,28.76,ESE,108,0.0,0.0,44,0.00,,---,0.00,VWS V14.01,2013-01-15 05:47:00,
2013-01-14 21:52:00,33.1,13.6,28.76,ESE,108,0.0,0.0,44,0.00,,---,0.00,VWS V14.01,2013-01-15 05:52:00,
2013-01-14 21:57:00,32.9,13.4,28.76,ESE,109,0.0,0.0,44,0.00,,---,0.00,VWS V14.01,2013-01-15 05:57:00,
2013-01-14 22:02:00,32.9,13.9,28.76,ESE,109,0.0,0.0,45,0.00,,---,0.00,VWS V14.01,2013-01-15 06:02:00,
2013-01-14 22:07:00,32.9,14.4,28.76,ESE,108,0.0,0.0,46,0.00,,---,0.00,VWS V14.01,2013-01-15 06:07:00,
2013-01-14 22:13:00,32.9,15.9,28.76,ESE,108,0.0,0.0,49,0.00,,---,0.00,VWS V14.01,2013-01-15 06:13:00,
2013-01-14 22:18:00,32.7,16.1,28.76,ESE,108,0.0,0.0,50,0.00,,---,0.00,VWS V14.01,2013-01-15 06:18:00,
2013-01-14 22:23:00,32.7,16.1,28.76,SE,125,2.7,2.7,50,0.00,,---,0.00,VWS V14.01,2013-01-15 06:23:00,
2013-01-14 22:29:00,32.7,16.1,28.76,SE,125,2.7,2.7,50,0.00,,---,0.00,VWS V14.01,2013-01-15 06:29:00,
2013-01-14 22:34:00,32.9,16.3,28.76,SE,128,3.6,3.6,50,0.00,,---,0.00,VWS V14.01,2013-01-15 06:34:00,
2013-01-14 22:39:00,32.9,16.3,28.76,ESE,119,0.0,3.6,50,0.00,,---,0.00,VWS V14.01,2013-01-15 06:39:00,
2013-01-14 22:44:00,32.7,16.1,28.76,ESE,119,0.0,0.0,50,0.00,,---,0.00,VWS V14.01,2013-01-15 06:44:00,
2013-01-14 22:50:00,32.7,16.6,28.76,ESE,114,2.2,3.6,51,0.00,,---,0.00,VWS V14.01,2013-01-15 06:50:00,
2013-01-14 22:55:00,32.7,16.6,28.76,ESE,123,4.0,4.0,51,0.00,,---,0.00,VWS V14.01,2013-01-15 06:55:00,
2013-01-14 23:00:00,33.1,16.9,28.76,ESE,118,3.1,4.0,51,0.00,,---,0.00,VWS V14.01,2013-01-15 07:00:00,
2013-01-14 23:05:00,33.1,16.9,28.76,SE,125,2.2,3.1,51,0.00,,---,0.00,VWS V14.01,2013-01-15 07:05:00,
2013-01-14 23:10:00,33.3,17.1,28.76,SE,127,0.0,0.0,51,0.00,,---,0.00,VWS V14.01,2013-01-15 07:10:00,
2013-01-14 23:15:00,33.3,17.1,28.76,SE,127,0.0,0.0,51,0.00,,---,0.00,VWS V14.01,2013-01-15 07:15:00,
2013-01-14 23:20:00,33.3,17.1,28.76,SE,127,0.0,0.0,51,0.00,,---,0.00,VWS V14.01,2013-01-15 07:20:00,
2013-01-14 23:26:00,33.4,17.3,28.76,SE,127,0.0,0.0,51,0.00,,---,0.00,VWS V14.01,2013-01-15 07:26:00,
2013-01-14 23:31:00,33.4,17.3,28.76,SE,127,0.0,0.0,51,0.00,,---,0.00,VWS V14.01,2013-01-15 07:31:00,
2013-01-14 23:36:00,33.1,17.4,28.76,SE,127,0.0,0.0,52,0.00,,---,0.00,VWS V14.01,2013-01-15 07:36:00,
2013-01-14 23:41:00,33.1,17.4,28.76,ESE,115,0.0,0.0,52,0.00,,---,0.00,VWS V14.01,2013-01-15 07:41:00,
2013-01-14 23:47:00,33.1,17.4,28.76,East,79,2.7,3.6,52,0.00,,---,0.00,VWS V14.01,2013-01-15 07:47:00,
2013-01-14 23:52:00,33.4,17.7,28.76,NE,53,3.1,3.1,52,0.00,,---,0.00,VWS V14.01,2013-01-15 07:52:00,
2013-01-14 23:57:00,33.4,17.7,28.76,ENE,62,0.0,0.0,52,0.00,,---,0.00,VWS V14.01,2013-01-15 07:57:00,